Hourly Data Report for December 22, 2014

All times are specified in Local Standard Time (LST). Add 1 hour to adjust for Daylight Saving Time where and when it is observed.

Metadata including Station Name, Province, Latitude, Longitude, Elevation, Climate ID, WMO ID, TC ID
GRAND ETANG
NOVA SCOTIA
Latitude: 46°33'00.000" N Longitude: 61°03'00.000" W Elevation: 12.80 m
Climate ID: 8201969 WMO ID: TC ID: WZQ
Hourly Data Report for December 21, 2014
Temp Definition
°C

Dew Point Temp Definition
°C

Rel Hum Definition
%

Wind Dir Definition
10's deg
Wind Spd Definition
km/h

Visibility Definition
km

Stn Press Definition
kPa

Hmdx Definition

Wind Chill Definition

Weather Definition

00:00 -0.6 LegendMM 78 9 8 102.46 -3 LegendNANA
01:00 -0.7 LegendMM 79 6 12 102.47 -5 LegendNANA
02:00 -1.1 LegendMM 76 8 12 102.51 -5 LegendNANA
03:00 -1.2 LegendMM 77 8 8 102.54 -4 LegendNANA
04:00 -1.2 LegendMM 77 8 6 102.53 -3 LegendNANA
05:00 -1.0 LegendMM 77 6 8 102.55 -4 LegendNANA
06:00 -0.9 LegendMM 78 4 7 102.57 -3 LegendNANA
07:00 -0.8 LegendMM 77 4 5 102.61 -2 LegendNANA
08:00 -0.8 LegendMM 75 3 10 102.62 -4 LegendNANA
09:00 -0.6 LegendMM 77 4 7 102.67 -3 LegendNANA
10:00 -0.4 LegendMM 74 6 8 102.72 -3 LegendNANA
11:00 -0.3 LegendMM 74 4 10 102.68 -4 LegendNANA
12:00 -0.3 LegendMM 74 3 11 102.63 -4 LegendNANA
13:00 -0.2 LegendMM 77 36 14 102.60 -4 LegendNANA
14:00 -0.6 LegendMM 75 2 11 102.60 -4 LegendNANA
15:00 -0.8 LegendMM 77 5 12 102.62 -5 LegendNANA
16:00 -0.7 LegendMM 81 34 16 102.66 -5 LegendNANA
17:00 -1.0 LegendMM 81 36 13 102.68 -5 LegendNANA
18:00 -1.5 LegendMM 80 35 13 102.72 -6 LegendNANA
19:00 -1.9 LegendMM 78 8 5 102.74 -4 LegendNANA
20:00 -2.1 LegendMM 79 9 6 102.77 -4 LegendNANA
21:00 -2.4 LegendMM 78 8 13 102.79 -7 LegendNANA
22:00 -2.2 LegendMM 80 7 7 102.80 -5 LegendNANA
23:00 -2.0 LegendMM 79 5 5 102.78 -4 LegendNANA

Notes on Data Quality.

Legend
  • E = Estimated
  • M = Missing
  • NA = Not Available
  • ‡ = Partner data that is not subject to review by the National Climate Archives